Weather in Sadriddin Aini

Uzbekistan     40°05′05″N   64°46′41″E
temp.,
°C
wind,
m/s
gust,
m/s
humid.,
%
clouds,
%
prec.,
mm/h
press.,
hPa
HPBL,
m
18 may, tue
tue1823:00+27nne58150 0.0 1008111
02:00+25nne57170 0.0 100784
05:00+23nne33210 0.0 100721
08:00+26se22170 0.0 1008207
11:00+31nw12130 0.0 1007986
14:00+34w1290 0.0 10063270
17:00+34wnw2380 0.0 10053416
20:00+31nw33100 0.0 100525
19 may, wed
wed1923:00+28nw33100 0.0 100515
02:00+26n33130 0.0 100420
05:00+24ne11180 0.0 100511
08:00+29ese22140 0.0 1006174
11:00+33ssw3290 0.0 10061871
14:00+35s3365 0.0 10053736
17:00+35sse3365 0.0 10043108
20:00+31se22920 0.0 100413
20 may, thu
thu2023:00+29ne331198 0.0 100520
02:00+27ne571416 0.0 100584
05:00+26ene33155 0.0 100517
08:00+29ne33123 0.0 1007227
11:00+34ne33933 0.0 10072720
14:00+37n54875 0.0 10074848
17:00+36n869100 0.0 10074740
20:00+33n7111131 0.0 1008388
21 may, fri
fri2123:00+29n46155 0.0 100973
02:00+27n45183 0.0 100956
05:00+26ne44195 0.0 100929
08:00+30ne331630 0.0 1010242
11:00+34n551391 0.0 10104108
14:00+36n8712100 0.0 10094471
17:00+33nw161518100 0.0 10101650
20:00+30n462395 0.6 1010156
22 may, sat
sat2223:00+27nne46235 0.6 101185
02:00+25nne443015 0.0 101039
05:00+24n44292 0.0 101042
08:00+27n45215 0.0 1011298
11:00+32nne65170 0.0 10102860
14:00+33nne86120 0.0 10093381
17:00+33n9890 0.0 10093066
20:00+29nne610110 0.0 1009237